When you browse on this site, cookies collect data to enhance your experience and personalize the content and advertising you see.
Visit our Privacy Policy to learn more. By continuing to use the site, you agree to this use of cookies and data.
  • In Hungary
  • List of Countries
  • For 7 days
  • Water Temperature
  • Weather Map
  • News
  • Weather Widgets
  • user-avatar
    Login

    Hourly Weather Cesarka

    Today, 25 August, Sunday

    Time Temperature Precipitation Wind Pressure Humidity
    00:00 +18°C° 0 mm 3 mps 753 mmHg 65%
    01:00 +18°C° 0 mm 3 mps 753 mmHg 72%
    02:00 +17°C° 0 mm 3 mps 753 mmHg 75%
    03:00 +17°C° 0 mm 3 mps 753 mmHg 78%
    04:00 +17°C° 0 mm 3 mps 753 mmHg 81%
    05:00 +17°C° 0 mm 3 mps 753 mmHg 77%
    06:00 +18°C° 0 mm 4 mps 753 mmHg 73%
    07:00 +19°C° 0 mm 4 mps 753 mmHg 66%
    08:00 +21°C° 0 mm 4 mps 753 mmHg 61%
    09:00 +23°C° 0 mm 5 mps 753 mmHg 55%
    10:00 +25°C° 0 mm 5 mps 753 mmHg 49%
    11:00 +26°C° 0 mm 5 mps 753 mmHg 48%
    12:00 +27°C° 0 mm 5 mps 753 mmHg 46%
    13:00 +28°C° 0 mm 5 mps 753 mmHg 45%
    14:00 +28°C° 0 mm 5 mps 752 mmHg 46%
    15:00 +28°C° 0 mm 5 mps 752 mmHg 47%
    16:00 +28°C° 0 mm 5 mps 752 mmHg 48%
    17:00 +27°C° 0 mm 4 mps 752 mmHg 54%
    18:00 +25°C° 0 mm 4 mps 752 mmHg 59%
    19:00 +22°C° 0 mm 3 mps 752 mmHg 64%
    20:00 +22°C° 0 mm 4 mps 752 mmHg 66%
    21:00 +21°C° 0 mm 4 mps 752 mmHg 67%
    22:00 +20°C° 0 mm 4 mps 752 mmHg 69%
    23:00 +20°C° 0 mm 4 mps 752 mmHg 70%

    Tomorrow, 26 August, Monday

    Time Temperature Precipitation Wind Pressure Humidity
    00:00 +19°C° 0 mm 4 mps 752 mmHg 72%
    01:00 +19°C° 0 mm 4 mps 752 mmHg 73%
    02:00 +19°C° 0 mm 3 mps 752 mmHg 75%
    03:00 +18°C° 0 mm 3 mps 752 mmHg 77%
    04:00 +18°C° 0 mm 3 mps 751 mmHg 78%
    05:00 +18°C° 0 mm 3 mps 751 mmHg 77%
    06:00 +19°C° 0 mm 4 mps 751 mmHg 75%
    07:00 +20°C° 0 mm 4 mps 752 mmHg 73%
    08:00 +22°C° 0 mm 4 mps 752 mmHg 69%
    09:00 +23°C° 0 mm 4 mps 752 mmHg 64%
    10:00 +26°C° 0 mm 4 mps 752 mmHg 60%
    11:00 +27°C° 0 mm 5 mps 751 mmHg 57%
    12:00 +28°C° 0 mm 5 mps 751 mmHg 53%
    13:00 +29°C° 0 mm 5 mps 751 mmHg 50%
    14:00 +29°C° 0 mm 5 mps 751 mmHg 50%
    15:00 +30°C° 0 mm 4 mps 750 mmHg 50%
    16:00 +30°C° 0 mm 4 mps 750 mmHg 50%
    17:00 +28°C° 0 mm 4 mps 750 mmHg 55%
    18:00 +26°C° 0 mm 4 mps 750 mmHg 61%
    19:00 +25°C° 0 mm 3 mps 750 mmHg 67%
    20:00 +24°C° 0 mm 3 mps 750 mmHg 70%
    21:00 +22°C° 0 mm 3 mps 750 mmHg 73%
    22:00 +22°C° 0 mm 3 mps 750 mmHg 77%
    23:00 +21°C° 0 mm 3 mps 750 mmHg 80%

    Day after tomorrow, 27 August, Tuesday

    Time Temperature Precipitation Wind Pressure Humidity
    00:00 +21°C° 0 mm 3 mps 750 mmHg 82%
    01:00 +20°C° 0 mm 3 mps 750 mmHg 85%
    02:00 +20°C° 0 mm 3 mps 750 mmHg 87%
    03:00 +20°C° 0 mm 3 mps 750 mmHg 89%
    04:00 +19°C° 0 mm 3 mps 750 mmHg 91%
    05:00 +20°C° 0 mm 3 mps 750 mmHg 85%
    06:00 +21°C° 0 mm 3 mps 750 mmHg 79%
    07:00 +22°C° 0 mm 4 mps 750 mmHg 73%
    08:00 +25°C° 0 mm 4 mps 750 mmHg 66%
    09:00 +27°C° 0 mm 4 mps 750 mmHg 58%
    10:00 +29°C° 0 mm 4 mps 750 mmHg 51%
    11:00 +30°C° 0 mm 4 mps 750 mmHg 47%
    12:00 +32°C° 0 mm 5 mps 750 mmHg 43%
    13:00 +33°C° 0 mm 5 mps 750 mmHg 39%
    14:00 +33°C° 0 mm 5 mps 750 mmHg 40%
    15:00 +33°C° 0 mm 5 mps 750 mmHg 41%
    16:00 +33°C° 0 mm 5 mps 749 mmHg 42%
    17:00 +30°C° 0 mm 5 mps 749 mmHg 47%
    18:00 +29°C° 0 mm 5 mps 749 mmHg 52%
    19:00 +27°C° 0 mm 4 mps 749 mmHg 57%
    20:00 +26°C° 0 mm 5 mps 749 mmHg 60%
    21:00 +25°C° 0 mm 5 mps 750 mmHg 62%
    22:00 +25°C° 0 mm 5 mps 750 mmHg 65%
    23:00 +23°C° 0 mm 5 mps 750 mmHg 67%

    28 August, Wednesday

    Time Temperature Precipitation Wind Pressure Humidity
    00:00 +22°C° 0 mm 5 mps 750 mmHg 68%
    01:00 +22°C° 0 mm 5 mps 750 mmHg 70%
    02:00 +21°C° 0 mm 4 mps 749 mmHg 70%
    03:00 +21°C° 0 mm 4 mps 749 mmHg 71%
    04:00 +20°C° 0 mm 4 mps 749 mmHg 72%
    05:00 +21°C° 0 mm 4 mps 749 mmHg 70%
    06:00 +21°C° 0 mm 4 mps 749 mmHg 67%
    07:00 +22°C° 0 mm 5 mps 749 mmHg 65%
    08:00 +25°C° 0 mm 5 mps 749 mmHg 60%
    09:00 +27°C° 0 mm 5 mps 749 mmHg 55%
    10:00 +29°C° 0 mm 5 mps 749 mmHg 50%
    11:00 +30°C° 0 mm 5 mps 749 mmHg 47%
    12:00 +32°C° 0 mm 4 mps 748 mmHg 44%
    13:00 +33°C° 0 mm 4 mps 748 mmHg 41%
    14:00 +33°C° 0.1 mm 4 mps 748 mmHg 42%
    15:00 +33°C° 0.1 mm 4 mps 748 mmHg 43%
    16:00 +33°C° 0.1 mm 4 mps 747 mmHg 44%
    17:00 +30°C° 0.2 mm 4 mps 747 mmHg 49%
    18:00 +28°C° 0.2 mm 5 mps 747 mmHg 54%
    19:00 +27°C° 0.2 mm 5 mps 747 mmHg 59%
    20:00 +26°C° 0.7 mm 5 mps 747 mmHg 64%
    21:00 +25°C° 0.7 mm 5 mps 747 mmHg 68%
    22:00 +23°C° 0.7 mm 4 mps 748 mmHg 73%
    23:00 +22°C° 0.2 mm 4 mps 748 mmHg 75%

    29 August, Thursday

    Time Temperature Precipitation Wind Pressure Humidity
    00:00 +22°C° 0.2 mm 4 mps 748 mmHg 77%
    01:00 +21°C° 0.2 mm 4 mps 747 mmHg 79%
    02:00 +21°C° 0.4 mm 4 mps 747 mmHg 81%
    03:00 +20°C° 0.4 mm 4 mps 747 mmHg 82%
    04:00 +20°C° 0.4 mm 4 mps 747 mmHg 83%
    05:00 +20°C° 0.4 mm 4 mps 747 mmHg 81%
    06:00 +21°C° 0.4 mm 4 mps 747 mmHg 78%
    07:00 +21°C° 0.4 mm 4 mps 747 mmHg 76%
    08:00 +23°C° 0.1 mm 4 mps 747 mmHg 69%
    09:00 +26°C° 0.1 mm 4 mps 747 mmHg 63%
    10:00 +28°C° 0.1 mm 4 mps 748 mmHg 57%
    11:00 +29°C° 0 mm 3 mps 747 mmHg 53%
    12:00 +30°C° 0 mm 3 mps 747 mmHg 48%
    13:00 +33°C° 0 mm 3 mps 747 mmHg 44%
    14:00 +33°C° 0 mm 3 mps 747 mmHg 43%
    15:00 +33°C° 0 mm 3 mps 746 mmHg 43%
    16:00 +32°C° 0 mm 2 mps 746 mmHg 42%
    17:00 +31°C° 0 mm 3 mps 746 mmHg 48%
    18:00 +29°C° 0 mm 4 mps 746 mmHg 53%
    19:00 +27°C° 0 mm 5 mps 746 mmHg 59%
    20:00 +26°C° 1.4 mm 4 mps 747 mmHg 67%
    21:00 +24°C° 1.4 mm 3 mps 747 mmHg 75%
    22:00 +23°C° 1.4 mm 2 mps 747 mmHg 84%
    23:00 +23°C° 0.5 mm 2 mps 747 mmHg 83%

    30 August, Friday

    Time Temperature Precipitation Wind Pressure Humidity
    00:00 +23°C° 0.5 mm 2 mps 747 mmHg 83%
    01:00 +23°C° 0.5 mm 1 mps 747 mmHg 83%
    02:00 +22°C° 0 mm 1 mps 747 mmHg 84%
    03:00 +22°C° 0 mm 1 mps 748 mmHg 86%
    04:00 +20°C° 0 mm 0 mps 748 mmHg 87%
    05:00 +22°C° 0.1 mm 1 mps 748 mmHg 86%
    06:00 +21°C° 0.1 mm 2 mps 748 mmHg 85%
    07:00 +22°C° 0.1 mm 3 mps 749 mmHg 84%
    08:00 +24°C° 0 mm 3 mps 749 mmHg 79%
    09:00 +25°C° 0 mm 3 mps 750 mmHg 74%
    10:00 +26°C° 0 mm 3 mps 750 mmHg 69%
    11:00 +27°C° 0 mm 3 mps 750 mmHg 66%
    12:00 +28°C° 0 mm 4 mps 750 mmHg 62%
    13:00 +28°C° 0 mm 4 mps 750 mmHg 59%
    14:00 +28°C° 0 mm 4 mps 750 mmHg 59%
    15:00 +28°C° 0 mm 4 mps 750 mmHg 60%
    16:00 +28°C° 0 mm 4 mps 750 mmHg 60%
    17:00 +27°C° 0 mm 4 mps 750 mmHg 66%
    18:00 +25°C° 0 mm 3 mps 750 mmHg 71%
    19:00 +24°C° 0 mm 3 mps 751 mmHg 76%
    20:00 +22°C° 0 mm 3 mps 751 mmHg 78%
    21:00 +21°C° 0 mm 3 mps 751 mmHg 79%
    22:00 +21°C° 0 mm 2 mps 751 mmHg 80%
    23:00 +20°C° 0 mm 2 mps 751 mmHg 80%
    Show more